Погода в Александровке

Россия / Тюменская область     56°36′28″N   69°43′49″E
темп.,
°C
ветер,
м/с
пор.,
м/с
влажн.,
%
обл.,
%
осадки,
мм/ч
давл.,
гПа
погр.,
м
24 мая, вт
вт2423:00+11ю51394100 0.2 1009358
02:00+13ююз7159099 0.0 1010428
05:00+12ююз389594 0.1 1011193
08:00+16ю467985 0.8 1012371
11:00+19ю61065100 1.0 1013656
14:00+24ююз6104339 0.0 10131614
17:00+25ююз484557 0.0 10121603
20:00+19ююв336421 0.0 101324
25 мая, ср
ср2523:00+16ю456131 0.0 101459
02:00+15ююв4662100 0.0 101566
05:00+14ююв486655 0.0 1015108
08:00+20ю4852100 0.0 1015275
11:00+25ююв5841100 0.0 1016903
14:00+26ююв6840100 0.0 10152094
17:00+25юв584995 0.0 1014434
20:00+20вюв41067100 0.0 1014154
26 мая, чт
чт2623:00+19вюв51559100 0.0 1013339
02:00+18юв615565 0.0 1013351
05:00+16юв514661 0.0 1012248
08:00+21юв613580 0.0 1012523
11:00+25юв811465 0.0 10111197
14:00+26юв79425 0.0 10101878
17:00+26вюв711474 0.0 10081219
20:00+21вюв717574 0.0 1006482
27 мая, пт
пт2723:00+20вюв71658100 0.0 1005432
02:00+19юв71459100 0.1 1003465
05:00+15юв613840 1.0 1003438
08:00+16ююв81179100 0.0 1002962
11:00+13ююв71188100 0.1 1003521
14:00+11зюз81188100 0.1 1007692
17:00+10з71285100 0.1 1010876
20:00+10зсз71378100 0.0 1012762
28 мая, сб
сб2823:00+8з4109099 0.0 1013257
02:00+7зюз36944 0.0 1013112
05:00+7з39872 0.0 1014190
08:00+14з45635 0.0 1015409
11:00+17з56460 0.0 10141942
14:00+19з564372 0.0 10152337
17:00+17з565491 0.0 10151015
20:00+14зюз487079 0.0 1016176